GW3903 Weather Reports


time (UTC)temp
C
wind
direction
speed
KPH
gust
KPH
rain 1hr
cm
rain 24hr
cm
rain mn
cm
humidity
%
barometer
mb
20260503033832 8 312 0.0 1.6 0.00 0.41 0.41 61 1010.4
20260503033329 8 338 1.6 1.6 0.00 0.41 0.41 61 1010.6
20260503032827 7 331 1.6 1.6 0.00 0.41 0.41 63 1010.4
20260503032326 7 287 0.0 0.0 0.00 0.41 0.41 68 1010.2
20260503031823 7 327 1.6 1.6 0.00 0.41 0.41 66 1010.4
20260503031320 8 268 0.0 0.0 0.00 0.41 0.41 67 1010.3
20260503030816 7 269 0.0 0.0 0.00 0.41 0.41 70 1010.3
20260503030313 8 311 0.0 0.0 0.00 0.41 0.41 63 1010.4
20260503025810 7 276 0.0 0.0 0.00 0.41 0.41 71 1010.4
20260503025307 7 272 0.0 0.0 0.00 0.41 0.41 69 1010.4
20260503024804 7 293 0.0 0.0 0.00 0.41 0.41 70 1010.5
20260503024301 7 286 0.0 0.0 0.00 0.41 0.41 72 1010.4
20260503023757 7 281 0.0 0.0 0.00 0.41 0.41 71 1010.6
20260503023254 7 256 1.6 1.6 0.00 0.41 0.41 70 1010.5
20260503022750 7 30 1.6 1.6 0.00 0.41 0.41 68 1010.5
20260503022245 7 261 0.0 0.0 0.00 0.41 0.41 67 1010.6
20260503021742 7 247 0.0 0.0 0.00 0.41 0.41 65 1010.6
20260503021238 8 247 0.0 0.0 0.00 0.41 0.41 68 1010.5
20260503020736 8 256 0.0 1.6 0.00 0.41 0.41 68 1010.5
20260503020233 8 264 1.6 1.6 0.00 0.41 0.41 66 1010.5
20260503015730 8 269 0.0 0.0 0.00 0.41 0.41 64 1010.4
20260503015227 8 277 0.0 0.0 0.00 0.41 0.41 62 1010.6
20260503014722 8 288 0.0 0.0 0.00 0.41 0.41 63 1010.4
20260503014221 8 268 1.6 1.6 0.00 0.41 0.41 64 1010.3
20260503013718 8 260 1.6 1.6 0.00 0.41 0.41 61 1010.3
20260503013216 8 279 0.0 0.0 0.00 0.41 0.41 61 1010.2
20260503012713 8 258 1.6 1.6 0.00 0.41 0.41 62 1010.3
20260503012210 8 235 1.6 1.6 0.00 0.41 0.41 63 1010.4
20260503011706 8 273 1.6 1.6 0.00 0.41 0.41 61 1010.1
20260503011203 8 268 0.0 1.6 0.00 0.41 0.41 59 1010.2
20260503010659 8 276 1.6 1.6 0.00 0.41 0.41 59 1010.2
20260503010156 9 278 0.0 0.0 0.00 0.41 0.41 58 1010.2
20260503005654 10 285 0.0 1.6 0.00 0.41 0.41 60 1010.1
20260503005151 10 290 0.0 0.0 0.00 0.41 0.41 59 1010.0
20260503004647 10 274 1.6 1.6 0.00 0.41 0.41 60 1010.0
20260503004146 10 241 1.6 1.6 0.00 0.41 0.41 59 1009.9
20260503003642 10 267 1.6 1.6 0.00 0.41 0.41 59 1010.0
20260503003139 10 274 0.0 1.6 0.00 0.41 0.41 53 1009.8
20260503002636 10 281 0.0 1.6 0.00 0.41 0.41 55 1010.0
20260503002133 10 260 1.6 1.6 0.00 0.41 0.41 51 1009.9
20260503001629 11 270 1.6 1.6 0.00 0.41 0.41 51 1009.9
20260503001126 11 275 0.0 1.6 0.00 0.41 0.41 48 1009.7
20260503000624 11 284 0.0 0.0 0.00 0.41 0.41 46 1009.6
20260503000120 11 293 0.0 0.0 0.00 0.41 0.41 45 1009.7
20260502235617 12 273 0.0 0.0 0.00 0.41 0.41 49 1009.7
20260502235115 12 255 0.0 0.0 0.00 0.41 0.41 46 1009.7
20260502234616 12 294 0.0 0.0 0.00 0.41 0.41 44 1009.7
20260502234114 12 72 1.6 1.6 0.00 0.41 0.41 41 1009.4
20260502233609 12 250 1.6 3.2 0.00 0.41 0.41 44 1009.5
20260502233106 12 216 3.2 3.2 0.00 0.41 0.41 40 1009.4
20260502232602 12 305 1.6 1.6 0.00 0.41 0.41 40 1009.4
20260502232100 12 328 0.0 0.0 0.00 0.41 0.41 47 1009.4
20260502231556 12 220 3.2 4.8 0.00 0.41 0.41 46 1009.4
20260502231054 12 292 0.0 0.0 0.00 0.41 0.41 50 1009.3
20260502230552 12 296 0.0 0.0 0.00 0.41 0.41 43 1009.2
20260502230050 13 283 0.0 0.0 0.00 0.41 0.41 45 1009.2
20260502225546 13 280 0.0 0.0 0.00 0.41 0.41 44 1009.1
20260502225043 13 280 1.6 3.2 0.00 0.41 0.41 40 1009.1
20260502224539 13 264 0.0 1.6 0.00 0.41 0.41 39 1008.9
20260502224036 13 263 0.0 1.6 0.00 0.41 0.41 44 1008.9
20260502223534 13 349 1.6 1.6 0.00 0.41 0.41 41 1009.0
20260502223032 13 281 3.2 4.8 0.00 0.41 0.41 41 1008.9
20260502222529 13 302 0.0 0.0 0.00 0.41 0.41 40 1009.1
20260502222025 14 288 1.6 1.6 0.00 0.41 0.41 37 1009.0
20260502221521 14 293 0.0 1.6 0.00 0.41 0.41 42 1008.7
20260502221019 14 351 1.6 1.6 0.00 0.41 0.41 39 1008.7
20260502220514 14 307 0.0 0.0 0.00 0.41 0.41 44 1008.8
20260502220011 14 104 3.2 3.2 0.00 0.41 0.41 43 1008.7
20260502215509 14 296 1.6 1.6 0.00 0.41 0.41 43 1008.6
20260502215005 14 282 0.0 0.0 0.00 0.41 0.41 39 1008.5
20260502214502 15 262 0.0 1.6 0.00 0.41 0.41 41 1008.7
20260502213959 15 169 4.8 6.4 0.00 0.41 0.41 47 1008.6
20260502213456 14 297 0.0 0.0 0.00 0.41 0.41 47 1008.7
20260502212954 15 286 0.0 0.0 0.00 0.41 0.41 51 1008.4
20260502212453 15 304 0.0 0.0 0.00 0.41 0.41 47 1008.5
20260502211949 15 279 1.6 1.6 0.00 0.41 0.41 46 1008.3
20260502211445 14 270 0.0 1.6 0.00 0.41 0.41 46 1008.3
20260502210943 15 302 0.0 1.6 0.00 0.41 0.41 45 1008.3
20260502210439 15 295 0.0 0.0 0.00 0.41 0.41 48 1008.3
20260502205937 15 292 0.0 0.0 0.00 0.41 0.41 51 1008.2
20260502205433 15 336 0.0 0.0 0.00 0.41 0.41 51 1008.5
20260502204930 14 305 0.0 1.6 0.00 0.41 0.41 54 1008.4
20260502204427 14 336 0.0 0.0 0.00 0.41 0.41 53 1008.3
20260502203925 13 337 1.6 1.6 0.00 0.41 0.41 54 1008.3
20260502203422 13 14 1.6 3.2 0.00 0.41 0.41 53 1008.2
20260502202918 13 343 1.6 3.2 0.00 0.41 0.41 53 1008.4
20260502202415 15 349 1.6 1.6 0.00 0.41 0.41 54 1008.4
20260502201913 14 294 0.0 1.6 0.00 0.41 0.41 54 1008.5
20260502201409 13 342 1.6 1.6 0.00 0.41 0.41 54 1008.7
20260502200906 13 334 3.2 4.8 0.00 0.41 0.41 56 1008.7
20260502200401 14 357 4.8 6.4 0.00 0.41 0.41 51 1008.6
20260502195859 15 353 3.2 4.8 0.00 0.41 0.41 46 1008.5
20260502195356 15 289 3.2 3.2 0.00 0.41 0.41 50 1008.6
20260502194852 15 238 1.6 1.6 0.00 0.41 0.41 46 1008.6
20260502194349 16 332 0.0 0.0 0.00 0.41 0.41 46 1008.8
20260502193845 14 280 0.0 0.0 0.00 0.41 0.41 51 1008.8
20260502193343 14 358 1.6 1.6 0.00 0.41 0.41 52 1009.0
20260502192838 15 298 1.6 1.6 0.00 0.41 0.41 51 1009.1
20260502192335 15 304 0.0 0.0 0.00 0.41 0.41 53 1009.1
20260502191832 14 91 3.2 3.2 0.00 0.41 0.41 53 1009.4
20260502191331 13 54 1.6 3.2 0.00 0.41 0.41 57 1009.4
20260502190827 13 310 0.0 0.0 0.00 0.41 0.41 58 1009.4
20260502190325 13 354 4.8 4.8 0.00 0.41 0.41 60 1009.6
20260502185820 13 326 1.6 1.6 0.00 0.41 0.41 62 1009.5
20260502185316 13 33 4.8 6.4 0.00 0.41 0.41 58 1009.5
20260502184813 14 289 1.6 3.2 0.00 0.41 0.41 55 1009.6
20260502184309 13 273 1.6 1.6 0.00 0.41 0.41 59 1009.7
20260502183806 13 197 1.6 3.2 0.00 0.41 0.41 62 1009.7
20260502183302 13 312 0.0 0.0 0.00 0.41 0.41 64 1009.7
20260502182757 13 297 0.0 0.0 0.00 0.41 0.41 64 1009.8
20260502182253 12 55 1.6 1.6 0.00 0.41 0.41 64 1009.9
20260502181749 14 310 1.6 1.6 0.00 0.41 0.41 60 1009.8
20260502181243 13 307 0.0 0.0 0.00 0.41 0.41 63 1009.8
20260502180740 13 324 1.6 3.2 0.00 0.41 0.41 64 1009.9
20260502180237 13 296 1.6 1.6 0.00 0.41 0.41 66 1009.9
20260502170155 11 58 6.4 9.7 0.00 0.41 0.41 64 1010.4
20260502164143 12 16 4.8 6.4 0.00 0.41 0.41 66 1010.6
20260502163638 12 39 3.2 3.2 0.00 0.41 0.41 67 1010.6
20260502163135 11 8 1.6 3.2 0.00 0.41 0.41 70 1010.7
20260502162631 10 318 0.0 0.0 0.00 0.41 0.41 75 1010.9
20260502162128 10 46 3.2 4.8 0.00 0.41 0.41 76 1010.9
20260502161626 10 333 1.6 3.2 0.00 0.41 0.41 76 1010.9
20260502161123 10 333 1.6 3.2 0.00 0.41 0.41 78 1011.0
20260502160621 10 317 1.6 3.2 0.00 0.41 0.41 77 1011.1
20260502160119 10 323 0.0 0.0 0.00 0.41 0.41 77 1011.0
20260502152033 12 317 1.6 1.6 0.00 0.41 0.41 69 1010.7
20260502151530 13 271 1.6 1.6 0.00 0.41 0.41 65 1010.6
20260502151027 13 241 1.6 1.6 0.00 0.41 0.41 67 1010.9
20260502150525 13 248 6.4 6.4 0.00 0.41 0.41 70 1010.7
20260502130410 10 291 0.0 0.0 0.00 0.41 0.41 89 1011.1
20260502123352 10 284 1.6 1.6 0.00 0.41 0.41 93 1010.5
20260502122850 10 244 1.6 1.6 0.00 0.41 0.41 95 1010.6
20260502122345 10 206 3.2 3.2 0.00 0.41 0.41 96 1010.8
20260502121844 9 276 1.6 1.6 0.00 0.41 0.41 97 1010.6
20260502121341 9 233 4.8 9.7 0.00 0.41 0.41 98 1010.8
20260502120838 9 279 0.0 1.6 0.00 0.41 0.41 99 1010.6
20260502120334 9 151 3.2 3.2 0.00 0.41 0.41 99 1010.6
20260502115832 9 288 1.6 3.2 0.00 0.41 0.41 99 1010.7
20260502115329 10 265 0.0 1.6 0.00 0.41 0.41 99 1010.7
20260502114825 10 297 0.0 0.0 0.00 0.41 0.41 99 1010.6
20260502114322 10 292 0.0 0.0 0.00 0.41 0.41 99 1010.6
20260502113819 8 295 0.0 1.6 0.00 0.41 0.41 99 1010.5
20260502113317 8 295 0.0 0.0 0.00 0.41 0.41 99 1010.8
20260502112815 8 291 0.0 0.0 0.00 0.41 0.41 99 1010.7
20260502112312 8 283 0.0 0.0 0.00 0.41 0.41 99 1010.7
20260502111809 8 277 0.0 1.6 0.00 0.41 0.41 99 1010.7
20260502111307 8 285 0.0 0.0 0.00 0.41 0.41 99 1010.5
20260502110804 8 268 0.0 0.0 0.00 0.41 0.41 99 1010.5
20260502110302 8 279 0.0 0.0 0.00 0.41 0.41 99 1010.4
20260502105759 8 286 0.0 0.0 0.00 0.41 0.41 99 1010.4
20260502105255 7 286 0.0 0.0 0.00 0.41 0.41 99 1010.3
20260502104754 7 284 0.0 0.0 0.00 0.41 0.41 99 1010.1
20260502104251 7 290 0.0 0.0 0.00 0.41 0.41 99 1010.2
20260502103748 7 289 0.0 0.0 0.00 0.41 0.41 99 1010.1
20260502103245 7 288 0.0 0.0 0.00 0.41 0.41 99 1010.1
20260502102742 7 283 0.0 0.0 0.00 0.41 0.41 99 1009.9
20260502102239 7 283 0.0 0.0 0.00 0.41 0.41 99 1010.1
20260502101737 8 283 0.0 0.0 0.00 0.41 0.41 99 1009.9
20260502101235 8 265 0.0 0.0 0.00 0.41 0.41 99 1010.1
20260502100733 8 272 0.0 0.0 0.00 0.41 0.41 99 1010.0
20260502100231 8 281 0.0 0.0 0.18 0.41 0.41 99 1009.9
20260502091205 8 279 1.6 1.6 0.79 0.33 0.33 99 1009.8
20260502090703 8 291 0.0 0.0 0.30 0.25 0.25 99 1009.9
20260502090159 8 288 0.0 0.0 0.00 0.20 0.20 99 1010.1
20260502071055 8 295 0.0 0.0 0.00 0.08 0.08 97 1010.5
20260502070553 8 283 0.0 0.0 0.00 0.08 0.08 97 1010.5
20260502070050 8 282 0.0 0.0 0.00 0.08 0.08 97 1010.7
20260502065549 8 287 0.0 0.0 0.00 0.08 0.08 97 1010.5
20260502065041 8 278 1.6 1.6 0.00 0.08 0.08 96 1010.5
20260502064539 8 285 0.0 0.0 0.00 0.08 0.08 97 1010.4
20260502064036 8 219 3.2 3.2 0.00 0.08 0.08 97 1010.7
20260502063534 8 282 0.0 0.0 0.00 0.08 0.08 97 1010.8
20260502063031 8 281 0.0 0.0 0.18 0.08 0.08 96 1010.7
20260502062528 8 266 0.0 1.6 0.18 0.08 0.08 96 1010.6
20260502062027 8 262 0.0 0.0 0.00 0.05 0.05 96 1010.4
20260502061524 8 277 0.0 1.6 0.00 0.05 0.05 96 1010.4
20260502061021 8 280 0.0 0.0 0.13 0.05 0.05 96 1010.5
20260502060516 8 284 0.0 0.0 0.13 0.05 0.05 96 1010.6
20260502060013 8 272 0.0 0.0 0.13 0.05 0.05 95 1010.5
20260502055510 8 280 1.6 1.6 0.00 0.03 0.03 95 1010.5
20260502055009 8 245 1.6 1.6 0.00 0.03 0.03 95 1010.4
20260502054508 8 273 1.6 1.6 0.00 0.03 0.03 95 1010.3
20260502054004 8 283 0.0 0.0 0.00 0.03 0.03 94 1010.3
20260502053501 8 263 0.0 1.6 0.00 0.03 0.03 94 1010.4
20260502052959 8 250 1.6 1.6 0.00 0.03 0.03 93 1010.4
20260502052457 9 268 1.6 1.6 0.00 0.03 0.03 92 1010.4
20260502051955 9 268 0.0 1.6 0.18 0.03 0.03 91 1010.7
20260502051453 9 281 0.0 0.0 0.18 0.03 0.03 91 1010.6
20260502050950 9 235 1.6 1.6 0.00 0.00 0.00 90 1010.7
20260502050446 9 268 1.6 1.6 0.00 0.00 0.00 89 1010.7
20260502045944 9 252 1.6 1.6 0.00 0.00 0.00 88 1010.3
20260502045440 9 265 0.0 1.6 0.00 0.00 0.00 88 1010.1
20260502044937 9 293 0.0 0.0 0.00 0.00 0.00 87 1010.0
20260502044433 10 294 0.0 0.0 0.00 0.00 0.00 86 1010.0
20260502043930 10 287 0.0 0.0 0.00 0.00 0.00 84 1010.2
20260502043428 10 278 0.0 0.0 0.00 0.00 0.00 84 1010.1
20260502042927 10 281 0.0 0.0 0.00 0.00 0.00 84 1010.0
20260502042425 10 259 1.6 1.6 0.00 0.00 0.00 84 1010.2
20260502041921 10 269 0.0 0.0 0.00 0.00 0.00 83 1010.1
20260502041420 10 276 0.0 1.6 0.00 0.00 0.00 83 1010.2
20260502040916 10 272 1.6 1.6 0.00 0.00 0.00 84 1010.1
20260502040413 10 284 0.0 0.0 0.00 0.00 0.00 85 1010.1
20260502035909 10 277 0.0 1.6 0.00 0.00 0.00 84 1010.1
20260502035406 10 279 0.0 0.0 0.00 0.00 0.00 84 1010.2
20260502034903 10 278 0.0 0.0 0.00 0.00 0.00 84 1010.1
20260502034402 10 275 0.0 0.0 0.00 0.00 0.00 83 1009.9